sat.trackr.live / text

‹ back to catalog

STARLINK-11167 [DTC]

NORAD 60061 · 2024-113C

PAYLOAD ACTIVE UNKNOWN

§ Identity

Operator
Country
US
Launch date
2024-06-19
Launch site
AFWTR
Launch vehicle
Mass (kg)
RCS (m²)

Purposes: comms

External: N2YO · Heavens-Above · Gunter

§ Orbital elements

Epoch: 2026-05-25T02:38:20.181120Z

Period
91.74 min
Inclination
53.1587°
Eccentricity
0.0001092
Mean motion
15.69721814 rev/d
Perigee alt
359.0 km
Apogee alt
360.4 km
Semi-major
6,737.8 km
B*
1.7192e-5
RAAN
174.5039°
Arg perigee
73.1268°
Mean anomaly
286.9870°
Rev number
11,186

§ Raw data

STARLINK-11167 [DTC]1 60061U 24113C   26145.10995580  .00001495  00000+0  17192-4 0  99912 60061  53.1587 174.5039 0001092  73.1268 286.9870 15.69721814111863

JSON: /api/v1/satellites/60061 · /tle

For live sub-satellite position, see the globe view (requires WebGL).

§ Visibility from observer

Set your observer location to see the next 7 days of passes ≥ 10°. The values pass through the URL so the page stays shareable.

No JS? Fill the form by hand. The geolocation button needs JavaScript.